Regional Weather Roundup
Issued by NWS

Home | Current Version | Previous Version | Graphics & Text | Print | Product List | Glossary On
Versions: 1 2 3 4 5 6 7 8 9 10 11 12 13 14 15 16 17 18 19 20 21 22 23 24 25 26 27 28 29 30 31 32 33 34 35 36 37 38 39 40 41 42 43 44 45 46 47 48 49 50
000
ASUS43 KOAX 281602
RWRNE

WEATHER ROUNDUP FOR NEBRASKA
NATIONAL WEATHER SERVICE OMAHA NE
1000 AM CST FRI NOV 28 2014

NOTES: SATELLITE DATA IS BEING USED TO AUGMENT CLOUD COVER ABOVE
       12000 FEET.
       "FAIR" INDICATES FEW OR NO CLOUDS BELOW 12,000 FEET WITH NO
       SIGNIFICANT WEATHER AND/OR OBSTRUCTIONS TO VISIBILITY.

  * THESE STATIONS DO NOT REPORT WEATHER SUCH AS RAIN...SNOW OR FOG.

NEZ001>004-019>022-054>056-281700-
NEBRASKA PANHANDLE

CITY           SKY/WX    TMP DP  RH WIND       PRES   REMARKS
SCOTTSBLUFF    MOSUNNY   57  24  28 W12       29.83S
ALLIANCE       SUNNY     53  26  35 W9        29.80S
CHADRON        PTSUNNY  N/A N/A N/A CALM      29.78R
SIDNEY         MOSUNNY   52  25  35 W14       29.87F
$$

NEZ057>060-069>072-079>082-281700-
SOUTHWEST NEBRASKA

CITY           SKY/WX    TMP DP  RH WIND       PRES   REMARKS
NORTH PLATTE   MOSUNNY   39  29  67 NW5       29.82F
IMPERIAL       MOSUNNY   47  26  44 W6        29.85F
MCCOOK         SUNNY     44  26  49 SW9       29.86F
$$

NEZ005>010-023>029-035>040-094-281700-
NORTH CENTRAL NEBRASKA

CITY           SKY/WX    TMP DP  RH WIND       PRES   REMARKS
VALENTINE      MOSUNNY   47  30  51 SW5       29.71S
BROKEN BOW     SUNNY     51  30  44 W6        29.78F
ORD            MOSUNNY   33  23  66 CALM      29.77F
$$

NEZ041-046>049-061>064-073>077-083>087-281700-
SOUTH CENTRAL NEBRASKA

CITY           SKY/WX    TMP DP  RH WIND       PRES   REMARKS
GRAND ISLAND   PTSUNNY   42  29  59 SW6       29.81F
HASTINGS       PTSUNNY   43  28  55 SW5       29.82S
KEARNEY *      MOSUNNY   41  27  56 SW9       29.84R
$$

NEZ011>018-030>034-042>045-281700-
NORTHEAST NEBRASKA

CITY           SKY/WX    TMP DP  RH WIND       PRES   REMARKS
NORFOLK        MOSUNNY   33  23  66 SE5       29.77F WCI  29
COLUMBUS *     MOSUNNY   32  23  69 SW6       29.82F WCI  26
TEKAMAH        MOSUNNY   36  26  67 S9        29.85F WCI  29
$$

NEZ050>053-065>068-078-088>093-281700-
SOUTHEAST NEBRASKA

CITY           SKY/WX    TMP DP  RH WIND       PRES   REMARKS
LINCOLN        MOSUNNY   38  25  59 S7        29.85F WCI  33
OMAHA EPPLEY   PTSUNNY   35  25  66 S12       29.86F WCI  27
FALLS CITY     SUNNY     41  28  60 SW12      29.90F
$$

NEZ044-045-051>053-067-281700-
OMAHA AREA

CITY           SKY/WX    TMP DP  RH WIND       PRES   REMARKS
OMAHA EPPLEY   PTSUNNY   35  25  66 S12       29.86F WCI  27
OFFUTT AFB     MOSUNNY   36  26  67 S8        29.85F WCI  30
$$


USA.gov is the U.S. government's official web portal to all federal, state and local government web resources and services.